Time,TemperatureF,DewpointF,PressureIn,WindDirection,WindDirectionDegrees,WindSpeedMPH,WindSpeedGustMPH,Humidity,HourlyPrecipIn,Conditions,Clouds,dailyrainin,SoftwareType,DateUTC
2013-02-25 00:03:00,38.5,34.1,30.25,NW,314,2.3,2.3,84,0.00,CLR,,0.00,WeatherDisplay:10.37,2013-02-25 08:03:00,
2013-02-25 00:08:00,39.0,34.3,30.25,NW,314,0.0,0.0,83,0.00,CLR,,0.00,WeatherDisplay:10.37,2013-02-25 08:08:00,
2013-02-25 00:13:00,38.9,34.2,30.25,NW,315,0.0,0.0,83,0.00,CLR,,0.00,WeatherDisplay:10.37,2013-02-25 08:13:00,
2013-02-25 00:18:00,38.9,33.9,30.26,NW,314,0.0,0.0,82,0.00,CLR,,0.00,WeatherDisplay:10.37,2013-02-25 08:18:00,
2013-02-25 00:23:00,38.7,33.7,30.26,NW,315,0.0,0.0,82,0.00,CLR,,0.00,WeatherDisplay:10.37,2013-02-25 08:23:00,
2013-02-25 00:28:00,38.3,33.3,30.26,NW,314,0.0,0.0,82,0.00,CLR,,0.00,WeatherDisplay:10.37,2013-02-25 08:28:00,
2013-02-25 00:33:00,38.1,33.4,30.26,NW,314,0.0,0.0,83,0.00,CLR,,0.00,WeatherDisplay:10.37,2013-02-25 08:33:00,
2013-02-25 00:38:00,38.0,33.6,30.26,NW,315,0.0,0.0,84,0.00,CLR,,0.00,WeatherDisplay:10.37,2013-02-25 08:38:00,
2013-02-25 00:44:00,38.4,33.7,30.26,NW,314,0.0,0.0,83,0.00,CLR,,0.00,WeatherDisplay:10.37,2013-02-25 08:44:00,
2013-02-25 00:49:00,38.3,33.6,30.26,NW,315,0.0,0.0,83,0.00,CLR,,0.00,WeatherDisplay:10.37,2013-02-25 08:49:00,
2013-02-25 00:54:00,38.2,33.5,30.26,NW,314,0.0,0.0,83,0.00,CLR,,0.00,WeatherDisplay:10.37,2013-02-25 08:54:00,
2013-02-25 00:59:00,38.2,33.8,30.26,NW,314,0.0,0.0,84,0.00,CLR,,0.00,WeatherDisplay:10.37,2013-02-25 08:59:00,
2013-02-25 01:04:00,38.0,33.6,30.26,NW,315,0.0,0.0,84,0.00,CLR,,0.00,WeatherDisplay:10.37,2013-02-25 09:04:00,
2013-02-25 01:09:00,37.7,33.3,30.26,NW,314,0.0,0.0,84,0.00,CLR,,0.00,WeatherDisplay:10.37,2013-02-25 09:09:00,
2013-02-25 01:14:00,37.7,33.6,30.26,NW,314,1.0,0.0,85,0.00,CLR,,0.00,WeatherDisplay:10.37,2013-02-25 09:14:00,
2013-02-25 01:19:00,38.1,34.0,30.26,NW,315,1.1,1.1,85,0.00,CLR,,0.00,WeatherDisplay:10.37,2013-02-25 09:19:00,
2013-02-25 01:24:00,38.2,33.5,30.27,NW,314,0.0,0.0,83,0.00,CLR,,0.00,WeatherDisplay:10.37,2013-02-25 09:24:00,
2013-02-25 01:29:00,37.9,33.2,30.27,NW,314,0.0,0.0,83,0.00,CLR,,0.00,WeatherDisplay:10.37,2013-02-25 09:29:00,
2013-02-25 01:34:00,37.5,32.8,30.27,NW,315,0.0,0.0,83,0.00,CLR,,0.00,WeatherDisplay:10.37,2013-02-25 09:34:00,
2013-02-25 01:39:00,37.3,33.2,30.26,NW,314,0.0,0.0,85,0.00,CLR,,0.00,WeatherDisplay:10.37,2013-02-25 09:39:00,
2013-02-25 01:44:00,37.1,32.7,30.27,NW,315,1.1,1.1,84,0.00,CLR,,0.00,WeatherDisplay:10.37,2013-02-25 09:44:00,
2013-02-25 01:49:00,37.3,33.2,30.26,WSW,249,1.1,0.0,85,0.00,CLR,,0.00,WeatherDisplay:10.37,2013-02-25 09:49:00,
2013-02-25 01:54:00,37.0,32.3,30.26,WSW,249,1.1,1.1,83,0.00,CLR,,0.00,WeatherDisplay:10.37,2013-02-25 09:54:00,
2013-02-25 01:59:00,36.3,31.9,30.26,NNW,340,1.1,1.1,84,0.00,CLR,,0.00,WeatherDisplay:10.37,2013-02-25 09:59:00,
2013-02-25 02:04:00,35.6,31.8,30.26,NW,325,2.3,2.3,86,0.00,CLR,,0.00,WeatherDisplay:10.37,2013-02-25 10:04:00,
2013-02-25 02:09:00,35.7,32.2,30.26,NNW,342,2.3,2.3,87,0.00,CLR,,0.00,WeatherDisplay:10.37,2013-02-25 10:09:00,
2013-02-25 02:14:00,35.5,32.0,30.27,NNW,342,0.0,0.1,87,0.00,CLR,,0.00,WeatherDisplay:10.37,2013-02-25 10:14:00,
2013-02-25 02:19:00,35.3,32.1,30.27,NNW,342,0.0,0.0,88,0.00,CLR,,0.00,WeatherDisplay:10.37,2013-02-25 10:19:00,
2013-02-25 02:24:00,35.4,32.2,30.27,NNW,342,0.0,0.0,88,0.00,CLR,,0.00,WeatherDisplay:10.37,2013-02-25 10:24:00,
2013-02-25 02:29:00,35.6,32.4,30.27,NNW,342,1.1,1.1,88,0.00,CLR,,0.00,WeatherDisplay:10.37,2013-02-25 10:29:00,
2013-02-25 02:34:00,35.7,32.5,30.27,NNW,342,1.1,1.1,88,0.00,CLR,,0.00,WeatherDisplay:10.37,2013-02-25 10:34:00,
2013-02-25 02:39:00,35.6,32.4,30.27,NNW,342,1.1,1.1,88,0.00,CLR,,0.00,WeatherDisplay:10.37,2013-02-25 10:39:00,
2013-02-25 02:45:00,35.6,32.4,30.27,NNW,342,1.1,1.1,88,0.00,CLR,,0.00,WeatherDisplay:10.37,2013-02-25 10:45:00,
2013-02-25 02:50:00,35.6,32.4,30.27,NNW,342,1.1,1.1,88,0.00,CLR,,0.00,WeatherDisplay:10.37,2013-02-25 10:50:00,
2013-02-25 02:55:00,35.5,32.3,30.27,NNW,342,1.1,1.1,88,0.00,CLR,,0.00,WeatherDisplay:10.37,2013-02-25 10:55:00,
2013-02-25 03:00:00,35.6,32.4,30.27,NNW,342,0.0,0.0,88,0.00,CLR,,0.00,WeatherDisplay:10.37,2013-02-25 11:00:00,
2013-02-25 03:05:00,35.5,32.3,30.27,North,11,1.1,1.1,88,0.00,CLR,,0.00,WeatherDisplay:10.37,2013-02-25 11:05:00,
2013-02-25 03:10:00,35.5,32.3,30.27,North,11,0.0,0.0,88,0.00,CLR,,0.00,WeatherDisplay:10.37,2013-02-25 11:10:00,
2013-02-25 03:15:00,35.4,32.2,30.27,North,10,0.0,0.0,88,0.00,CLR,,0.00,WeatherDisplay:10.37,2013-02-25 11:15:00,
2013-02-25 03:20:00,35.2,32.0,30.26,North,11,0.0,0.0,88,0.00,CLR,,0.00,WeatherDisplay:10.37,2013-02-25 11:20:00,
2013-02-25 03:25:00,35.3,32.4,30.26,North,11,1.1,1.1,89,0.00,CLR,,0.00,WeatherDisplay:10.37,2013-02-25 11:25:00,
2013-02-25 03:31:00,35.7,32.5,30.27,North,11,1.1,1.1,88,0.00,CLR,,0.00,WeatherDisplay:10.37,2013-02-25 11:31:00,
2013-02-25 03:36:00,35.3,31.8,30.27,North,1,1.1,1.1,87,0.00,CLR,,0.00,WeatherDisplay:10.37,2013-02-25 11:36:00,
2013-02-25 03:41:00,35.0,31.5,30.27,North,1,0.0,0.1,87,0.00,CLR,,0.00,WeatherDisplay:10.37,2013-02-25 11:41:00,
2013-02-25 03:46:00,35.1,32.2,30.26,ENE,77,1.1,1.1,89,0.00,CLR,,0.00,WeatherDisplay:10.37,2013-02-25 11:46:00,
2013-02-25 03:51:00,35.1,31.9,30.26,ENE,63,2.3,2.3,88,0.00,CLR,,0.00,WeatherDisplay:10.37,2013-02-25 11:51:00,
2013-02-25 03:57:00,35.1,31.9,30.26,NNW,347,2.3,2.3,88,0.00,CLR,,0.00,WeatherDisplay:10.37,2013-02-25 11:57:00,
2013-02-25 04:02:00,34.9,31.7,30.26,NNW,347,1.1,1.1,88,0.00,CLR,,0.00,WeatherDisplay:10.37,2013-02-25 12:02:00,
2013-02-25 04:07:00,34.5,31.3,30.25,NNW,347,0.0,0.0,88,0.00,CLR,,0.00,WeatherDisplay:10.37,2013-02-25 12:07:00,
2013-02-25 04:12:00,34.5,31.6,30.25,NNW,347,0.0,0.0,89,0.00,CLR,,0.00,WeatherDisplay:10.37,2013-02-25 12:12:00,
2013-02-25 04:17:00,34.6,31.7,30.25,NNW,347,0.0,0.0,89,0.00,CLR,,0.00,WeatherDisplay:10.37,2013-02-25 12:17:00,
2013-02-25 04:22:00,34.5,31.6,30.25,WSW,240,1.1,1.1,89,0.00,CLR,,0.00,WeatherDisplay:10.37,2013-02-25 12:22:00,
2013-02-25 04:27:00,34.7,31.8,30.25,WSW,240,0.0,0.0,89,0.00,CLR,,0.00,WeatherDisplay:10.37,2013-02-25 12:27:00,
2013-02-25 04:32:00,34.7,31.8,30.25,NNW,342,2.3,2.3,89,0.00,CLR,,0.00,WeatherDisplay:10.37,2013-02-25 12:32:00,
2013-02-25 04:37:00,34.7,31.8,30.25,North,5,1.1,1.1,89,0.00,CLR,,0.00,WeatherDisplay:10.37,2013-02-25 12:37:00,
2013-02-25 04:42:00,34.8,31.9,30.25,ENE,58,2.3,2.3,89,0.00,CLR,,0.00,WeatherDisplay:10.37,2013-02-25 12:42:00,
2013-02-25 04:47:00,34.5,31.3,30.25,NW,323,2.3,2.3,88,0.00,CLR,,0.00,WeatherDisplay:10.37,2013-02-25 12:47:00,
2013-02-25 04:52:00,34.3,31.4,30.25,NW,323,1.1,0.0,89,0.00,CLR,,0.00,WeatherDisplay:10.37,2013-02-25 12:52:00,
2013-02-25 04:57:00,34.4,31.5,30.25,NW,314,0.0,0.0,89,0.00,CLR,,0.00,WeatherDisplay:10.37,2013-02-25 12:57:00,
2013-02-25 05:02:00,34.3,31.4,30.25,NW,314,0.0,0.0,89,0.00,CLR,,0.00,WeatherDisplay:10.37,2013-02-25 13:02:00,
2013-02-25 05:07:00,34.2,31.3,30.26,NW,316,0.0,0.0,89,0.00,CLR,,0.00,WeatherDisplay:10.37,2013-02-25 13:07:00,
2013-02-25 05:12:00,33.9,31.0,30.26,ENE,75,2.0,2.0,89,0.00,CLR,,0.00,WeatherDisplay:10.37,2013-02-25 13:12:00,
2013-02-25 05:17:00,34.0,31.4,30.26,ENE,78,2.3,2.3,90,0.00,CLR,,0.00,WeatherDisplay:10.37,2013-02-25 13:17:00,
2013-02-25 05:22:00,34.4,31.8,30.26,ENE,76,2.3,2.3,90,0.00,CLR,,0.00,WeatherDisplay:10.37,2013-02-25 13:22:00,
2013-02-25 05:27:00,34.6,32.0,30.26,ENE,71,2.3,2.3,90,0.00,CLR,,0.00,WeatherDisplay:10.37,2013-02-25 13:27:00,
2013-02-25 05:33:00,35.1,32.2,30.26,ENE,71,1.1,0.0,89,0.00,CLR,,0.00,WeatherDisplay:10.37,2013-02-25 13:33:00,
2013-02-25 05:38:00,35.0,32.1,30.26,ENE,71,0.0,0.0,89,0.00,CLR,,0.00,WeatherDisplay:10.37,2013-02-25 13:38:00,
2013-02-25 05:44:00,35.1,32.2,30.27,ENE,71,0.0,0.0,89,0.00,CLR,,0.00,WeatherDisplay:10.37,2013-02-25 13:44:00,
2013-02-25 05:49:00,34.9,32.0,30.27,ENE,71,0.0,0.0,89,0.00,CLR,,0.00,WeatherDisplay:10.37,2013-02-25 13:49:00,
2013-02-25 05:54:00,34.7,31.8,30.27,ENE,71,0.0,0.0,89,0.00,CLR,,0.00,WeatherDisplay:10.37,2013-02-25 13:54:00,
2013-02-25 05:59:00,34.4,31.5,30.28,North,360,2.3,2.3,89,0.00,CLR,,0.00,WeatherDisplay:10.37,2013-02-25 13:59:00,
2013-02-25 06:04:00,34.1,31.2,30.28,NNW,342,1.1,1.1,89,0.00,CLR,,0.00,WeatherDisplay:10.37,2013-02-25 14:04:00,
2013-02-25 06:10:00,33.7,30.5,30.28,NNE,16,2.3,2.3,88,0.00,CLR,,0.00,WeatherDisplay:10.37,2013-02-25 14:10:00,
2013-02-25 06:16:00,33.7,31.4,30.28,ENE,74,2.3,2.3,91,0.00,CLR,,0.00,WeatherDisplay:10.37,2013-02-25 14:16:00,
2013-02-25 06:21:00,33.8,31.2,30.28,North,4,1.1,1.1,90,0.00,CLR,,0.00,WeatherDisplay:10.37,2013-02-25 14:21:00,
2013-02-25 06:26:00,33.9,31.6,30.29,NNW,338,1.1,1.1,91,0.00,CLR,,0.00,WeatherDisplay:10.37,2013-02-25 14:26:00,
2013-02-25 06:31:00,34.3,31.9,30.29,NNW,336,0.0,0.0,91,0.00,CLR,,0.00,WeatherDisplay:10.37,2013-02-25 14:31:00,
2013-02-25 06:36:00,34.3,31.7,30.29,NNW,336,0.0,0.0,90,0.00,CLR,,0.00,WeatherDisplay:10.37,2013-02-25 14:36:00,
2013-02-25 06:41:00,34.0,31.4,30.29,NNW,336,0.0,0.0,90,0.00,CLR,,0.00,WeatherDisplay:10.37,2013-02-25 14:41:00,
2013-02-25 06:46:00,33.7,31.1,30.28,NNW,335,0.0,0.0,90,0.00,CLR,,0.00,WeatherDisplay:10.37,2013-02-25 14:46:00,
2013-02-25 06:51:00,33.5,30.9,30.28,NNW,336,0.0,0.0,90,0.00,CLR,,0.00,WeatherDisplay:10.37,2013-02-25 14:51:00,
2013-02-25 06:56:00,33.7,31.4,30.28,NNW,336,0.0,0.0,91,0.00,CLR,,0.00,WeatherDisplay:10.37,2013-02-25 14:56:00,
2013-02-25 07:01:00,33.8,31.5,30.28,NNW,336,0.0,0.0,91,0.00,CLR,,0.00,WeatherDisplay:10.37,2013-02-25 15:01:00,
2013-02-25 07:06:00,33.8,31.5,30.28,NNW,335,0.0,0.0,91,0.00,CLR,,0.00,WeatherDisplay:10.37,2013-02-25 15:06:00,
2013-02-25 07:11:00,33.9,31.6,30.28,NNW,336,0.0,0.0,91,0.00,CLR,,0.00,WeatherDisplay:10.37,2013-02-25 15:11:00,
2013-02-25 07:16:00,34.2,31.8,30.28,NNW,336,0.0,0.0,91,0.00,CLR,,0.00,WeatherDisplay:10.37,2013-02-25 15:16:00,
2013-02-25 07:22:00,34.5,32.1,30.28,NNW,336,0.0,0.0,91,0.00,CLR,,0.00,WeatherDisplay:10.37,2013-02-25 15:22:00,
2013-02-25 07:27:00,34.5,32.1,30.28,NNW,338,0.0,0.0,91,0.00,CLR,,0.00,WeatherDisplay:10.37,2013-02-25 15:27:00,
2013-02-25 07:32:00,34.1,31.5,30.28,North,354,3.5,3.5,90,0.00,CLR,,0.00,WeatherDisplay:10.37,2013-02-25 15:32:00,
2013-02-25 07:37:00,33.9,31.3,30.28,NNW,345,3.5,3.5,90,0.00,CLR,,0.00,WeatherDisplay:10.37,2013-02-25 15:37:00,
2013-02-25 07:42:00,34.1,31.7,30.28,NW,319,2.3,2.3,91,0.00,CLR,,0.00,WeatherDisplay:10.37,2013-02-25 15:42:00,
2013-02-25 07:47:00,34.4,32.0,30.28,NNE,20,2.3,2.3,91,0.00,CLR,,0.00,WeatherDisplay:10.37,2013-02-25 15:47:00,
2013-02-25 07:52:00,34.5,32.1,30.28,NNE,32,1.1,1.1,91,0.00,CLR,,0.00,WeatherDisplay:10.37,2013-02-25 15:52:00,
2013-02-25 07:57:00,34.9,32.5,30.28,NNE,32,1.1,1.1,91,0.00,CLR,,0.00,WeatherDisplay:10.37,2013-02-25 15:57:00,
2013-02-25 08:02:00,35.3,32.9,30.28,NNE,24,1.1,1.1,91,0.00,CLR,,0.00,WeatherDisplay:10.37,2013-02-25 16:02:00,
2013-02-25 08:07:00,35.9,33.5,30.28,NNE,27,1.1,1.1,91,0.00,CLR,,0.00,WeatherDisplay:10.37,2013-02-25 16:07:00,
2013-02-25 08:12:00,36.5,34.1,30.28,NE,37,2.3,2.3,91,0.00,CLR,,0.00,WeatherDisplay:10.37,2013-02-25 16:12:00,
2013-02-25 08:17:00,37.1,34.7,30.28,NE,34,2.3,2.3,91,0.00,CLR,,0.00,WeatherDisplay:10.37,2013-02-25 16:17:00,
2013-02-25 08:22:00,37.8,35.1,30.28,NNE,30,2.3,2.3,90,0.00,CLR,,0.00,WeatherDisplay:10.37,2013-02-25 16:22:00,
2013-02-25 08:27:00,38.3,35.3,30.28,NNE,21,3.5,3.5,89,0.00,CLR,,0.00,WeatherDisplay:10.37,2013-02-25 16:27:00,
2013-02-25 08:32:00,39.2,36.5,30.28,North,354,2.3,2.3,90,0.00,CLR,,0.00,WeatherDisplay:10.37,2013-02-25 16:32:00,
2013-02-25 08:37:00,40.1,37.1,30.28,NNE,20,4.6,4.6,89,0.00,CLR,,0.00,WeatherDisplay:10.37,2013-02-25 16:37:00,
2013-02-25 08:42:00,40.8,37.2,30.28,NNW,332,3.5,3.5,87,0.00,CLR,,0.00,WeatherDisplay:10.37,2013-02-25 16:42:00,
2013-02-25 08:47:00,41.2,37.3,30.28,NNW,329,2.3,2.3,86,0.00,CLR,,0.00,WeatherDisplay:10.37,2013-02-25 16:47:00,
2013-02-25 08:52:00,41.9,37.7,30.28,NNE,19,2.3,2.3,85,0.00,CLR,,0.00,WeatherDisplay:10.37,2013-02-25 16:52:00,
2013-02-25 08:57:00,42.3,38.1,30.27,NNE,15,1.1,1.1,85,0.00,CLR,,0.00,WeatherDisplay:10.37,2013-02-25 16:57:00,
2013-02-25 09:03:00,43.1,38.9,30.27,NE,54,3.5,3.5,85,0.00,CLR,,0.00,WeatherDisplay:10.37,2013-02-25 17:03:00,
2013-02-25 09:08:00,43.8,39.0,30.27,North,353,1.1,1.1,83,0.00,CLR,,0.00,WeatherDisplay:10.37,2013-02-25 17:08:00,
2013-02-25 09:13:00,44.4,39.2,30.27,NNE,18,3.5,3.5,82,0.00,CLR,,0.00,WeatherDisplay:10.37,2013-02-25 17:13:00,
2013-02-25 09:18:00,45.0,39.5,30.27,NNE,15,4.6,4.6,81,0.00,CLR,,0.00,WeatherDisplay:10.37,2013-02-25 17:18:00,
2013-02-25 09:23:00,45.5,40.0,30.27,North,357,3.5,3.5,81,0.00,CLR,,0.00,WeatherDisplay:10.37,2013-02-25 17:23:00,
2013-02-25 09:28:00,45.9,39.8,30.26,NE,47,2.0,2.0,79,0.00,CLR,,0.00,WeatherDisplay:10.37,2013-02-25 17:28:00,
2013-02-25 09:33:00,46.4,39.9,30.26,NW,307,1.1,1.1,78,0.00,CLR,,0.00,WeatherDisplay:10.37,2013-02-25 17:33:00,
2013-02-25 09:38:00,47.0,39.5,30.27,NNW,340,3.0,3.0,75,0.00,CLR,,0.00,WeatherDisplay:10.37,2013-02-25 17:38:00,
2013-02-25 09:43:00,47.8,40.3,30.26,NW,323,3.5,3.5,75,0.00,CLR,,0.00,WeatherDisplay:10.37,2013-02-25 17:43:00,
2013-02-25 09:48:00,48.4,40.5,30.27,NE,46,3.5,3.5,74,0.00,CLR,,0.00,WeatherDisplay:10.37,2013-02-25 17:48:00,
2013-02-25 09:53:00,48.9,41.0,30.26,NNW,329,2.3,2.3,74,0.00,CLR,,0.00,WeatherDisplay:10.37,2013-02-25 17:53:00,
2013-02-25 09:58:00,49.8,40.0,30.26,NW,309,1.1,1.1,69,0.00,CLR,,0.00,WeatherDisplay:10.37,2013-02-25 17:58:00,
2013-02-25 10:03:00,50.5,40.3,30.26,NNE,26,5.8,5.8,68,0.00,CLR,,0.00,WeatherDisplay:10.37,2013-02-25 18:03:00,
2013-02-25 10:08:00,51.1,40.9,30.26,NNE,29,8.1,8.1,68,0.00,CLR,,0.00,WeatherDisplay:10.37,2013-02-25 18:08:00,
2013-02-25 10:13:00,51.0,40.4,30.26,NNE,25,6.9,6.9,67,0.00,CLR,,0.00,WeatherDisplay:10.37,2013-02-25 18:13:00,
2013-02-25 10:18:00,51.3,40.3,30.26,NNW,342,4.6,4.6,66,0.00,CLR,,0.00,WeatherDisplay:10.37,2013-02-25 18:18:00,
2013-02-25 10:23:00,51.5,40.5,30.26,North,6,6.9,6.9,66,0.00,CLR,,0.00,WeatherDisplay:10.37,2013-02-25 18:23:00,
2013-02-25 10:28:00,52.1,41.1,30.26,NE,39,5.8,5.8,66,0.00,CLR,,0.00,WeatherDisplay:10.37,2013-02-25 18:28:00,
2013-02-25 10:33:00,52.7,40.9,30.25,NNW,329,6.0,6.0,64,0.00,CLR,,0.00,WeatherDisplay:10.37,2013-02-25 18:33:00,
2013-02-25 10:38:00,53.5,40.8,30.25,NNE,28,8.0,8.0,62,0.00,CLR,,0.00,WeatherDisplay:10.37,2013-02-25 18:38:00,
2013-02-25 10:43:00,54.1,41.4,30.25,North,6,6.9,6.9,62,0.00,CLR,,0.00,WeatherDisplay:10.37,2013-02-25 18:43:00,
2013-02-25 10:48:00,54.7,41.5,30.25,NNE,17,5.0,5.0,61,0.00,CLR,,0.00,WeatherDisplay:10.37,2013-02-25 18:48:00,
2013-02-25 10:53:00,55.3,41.6,30.25,NNE,32,9.2,9.2,60,0.00,CLR,,0.00,WeatherDisplay:10.37,2013-02-25 18:53:00,
2013-02-25 10:58:00,55.7,41.6,30.25,NNW,336,9.2,9.2,59,0.00,CLR,,0.00,WeatherDisplay:10.37,2013-02-25 18:58:00,
2013-02-25 11:03:00,55.8,42.1,30.25,NNE,20,5.8,5.8,60,0.00,CLR,,0.00,WeatherDisplay:10.37,2013-02-25 19:03:00,
2013-02-25 11:08:00,56.2,42.1,30.25,NNE,19,5.8,5.8,59,0.00,CLR,,0.00,WeatherDisplay:10.37,2013-02-25 19:08:00,
2013-02-25 11:13:00,56.5,41.9,30.25,NNW,334,6.9,6.9,58,0.00,CLR,,0.00,WeatherDisplay:10.37,2013-02-25 19:13:00,
2013-02-25 11:18:00,57.0,42.4,30.25,NNE,28,6.9,6.9,58,0.00,CLR,,0.00,WeatherDisplay:10.37,2013-02-25 19:18:00,
2013-02-25 11:24:00,57.5,42.4,30.25,NNE,16,3.5,3.5,57,0.00,CLR,,0.00,WeatherDisplay:10.37,2013-02-25 19:24:00,
2013-02-25 11:29:00,58.0,41.9,30.24,SE,145,2.3,2.3,55,0.00,CLR,,0.00,WeatherDisplay:10.37,2013-02-25 19:29:00,
2013-02-25 11:34:00,59.8,43.1,30.24,SSE,161,0.0,0.0,54,0.00,CLR,,0.00,WeatherDisplay:10.37,2013-02-25 19:34:00,
2013-02-25 11:39:00,60.7,42.5,30.24,NNE,27,3.5,3.5,51,0.00,CLR,,0.00,WeatherDisplay:10.37,2013-02-25 19:39:00,
2013-02-25 11:44:00,59.7,42.0,30.24,NNE,27,5.8,5.8,52,0.00,CLR,,0.00,WeatherDisplay:10.37,2013-02-25 19:44:00,
2013-02-25 11:49:00,59.2,42.1,30.24,East,94,3.5,3.5,53,0.00,CLR,,0.00,WeatherDisplay:10.37,2013-02-25 19:49:00,
2013-02-25 11:54:00,59.9,42.7,30.24,ENE,73,3.5,3.5,53,0.00,CLR,,0.00,WeatherDisplay:10.37,2013-02-25 19:54:00,
2013-02-25 11:59:00,60.3,42.6,30.24,NE,36,3.5,3.5,52,0.00,CLR,,0.00,WeatherDisplay:10.37,2013-02-25 19:59:00,
2013-02-25 12:04:00,60.3,42.6,30.24,ENE,64,1.1,1.1,52,0.00,CLR,,0.00,WeatherDisplay:10.37,2013-02-25 20:04:00,
2013-02-25 12:09:00,61.4,43.1,30.23,ESE,117,3.5,3.5,51,0.00,CLR,,0.00,WeatherDisplay:10.37,2013-02-25 20:09:00,
2013-02-25 12:15:00,62.8,44.4,30.23,SE,139,1.1,1.1,51,0.00,CLR,,0.00,WeatherDisplay:10.37,2013-02-25 20:15:00,
2013-02-25 12:20:00,63.6,44.1,30.23,East,94,1.1,1.1,49,0.00,CLR,,0.00,WeatherDisplay:10.37,2013-02-25 20:20:00,
2013-02-25 12:25:00,64.3,43.6,30.23,SSE,160,2.3,2.3,47,0.00,CLR,,0.00,WeatherDisplay:10.37,2013-02-25 20:25:00,
2013-02-25 12:30:00,64.9,42.5,30.22,SW,233,3.5,3.5,44,0.00,CLR,,0.00,WeatherDisplay:10.37,2013-02-25 20:30:00,
2013-02-25 12:35:00,65.5,42.4,30.22,SSE,160,1.1,1.1,43,0.00,CLR,,0.00,WeatherDisplay:10.37,2013-02-25 20:35:00,
2013-02-25 12:40:00,65.8,42.1,30.22,SW,226,3.5,3.5,42,0.00,CLR,,0.00,WeatherDisplay:10.37,2013-02-25 20:40:00,
2013-02-25 12:45:00,65.1,41.4,30.21,SSW,211,4.6,4.6,42,0.00,CLR,,0.00,WeatherDisplay:10.37,2013-02-25 20:45:00,
2013-02-25 12:50:00,65.3,42.2,30.21,SW,233,2.3,2.3,43,0.00,CLR,,0.00,WeatherDisplay:10.37,2013-02-25 20:50:00,
2013-02-25 12:55:00,65.8,42.7,30.21,WNW,293,2.3,2.3,43,0.00,CLR,,0.00,WeatherDisplay:10.37,2013-02-25 20:55:00,
2013-02-25 13:00:00,65.9,41.5,30.21,NNW,327,6.9,6.9,41,0.00,CLR,,0.00,WeatherDisplay:10.37,2013-02-25 21:00:00,
2013-02-25 13:05:00,64.9,41.2,30.21,NW,307,3.5,3.5,42,0.00,CLR,,0.00,WeatherDisplay:10.37,2013-02-25 21:05:00,
2013-02-25 13:10:00,64.7,40.4,30.20,NW,323,8.1,8.1,41,0.00,CLR,,0.00,WeatherDisplay:10.37,2013-02-25 21:10:00,
2013-02-25 13:16:00,64.9,40.6,30.21,NNW,338,6.9,6.9,41,0.00,CLR,,0.00,WeatherDisplay:10.37,2013-02-25 21:16:00,
2013-02-25 13:21:00,64.9,41.9,30.21,WNW,287,4.6,4.6,43,0.00,CLR,,0.00,WeatherDisplay:10.37,2013-02-25 21:21:00,
2013-02-25 13:26:00,65.9,41.5,30.21,NW,319,5.0,5.0,41,0.00,CLR,,0.00,WeatherDisplay:10.37,2013-02-25 21:26:00,
2013-02-25 13:31:00,65.9,40.2,30.20,WNW,287,6.9,6.9,39,0.00,CLR,,0.00,WeatherDisplay:10.37,2013-02-25 21:31:00,
2013-02-25 13:36:00,66.3,41.2,30.20,WNW,301,3.5,3.5,40,0.00,CLR,,0.00,WeatherDisplay:10.37,2013-02-25 21:36:00,
2013-02-25 13:41:00,67.2,40.0,30.20,NW,323,8.1,8.1,37,0.00,CLR,,0.00,WeatherDisplay:10.37,2013-02-25 21:41:00,
2013-02-25 13:46:00,66.6,40.9,30.20,WNW,295,6.9,6.9,39,0.00,CLR,,0.00,WeatherDisplay:10.37,2013-02-25 21:46:00,
2013-02-25 13:52:00,66.6,39.5,30.20,WNW,300,4.6,4.6,37,0.00,CLR,,0.00,WeatherDisplay:10.37,2013-02-25 21:52:00,
2013-02-25 13:57:00,66.7,38.9,30.19,ESE,104,2.3,2.3,36,0.00,CLR,,0.00,WeatherDisplay:10.37,2013-02-25 21:57:00,
2013-02-25 14:02:00,67.8,40.6,30.19,WNW,303,3.5,3.5,37,0.00,CLR,,0.00,WeatherDisplay:10.37,2013-02-25 22:02:00,
2013-02-25 14:07:00,69.3,40.5,30.19,West,281,3.5,3.5,35,0.00,CLR,,0.00,WeatherDisplay:10.37,2013-02-25 22:07:00,
2013-02-25 14:12:00,69.7,40.8,30.19,West,266,3.5,3.5,35,0.00,CLR,,0.00,WeatherDisplay:10.37,2013-02-25 22:12:00,
2013-02-25 14:17:00,70.1,40.4,30.19,West,271,1.1,1.1,34,0.00,CLR,,0.00,WeatherDisplay:10.37,2013-02-25 22:17:00,
2013-02-25 14:22:00,69.3,40.5,30.19,NNW,344,4.6,4.6,35,0.00,CLR,,0.00,WeatherDisplay:10.37,2013-02-25 22:22:00,
2013-02-25 14:27:00,68.0,39.3,30.19,NNE,23,8.1,8.1,35,0.00,CLR,,0.00,WeatherDisplay:10.37,2013-02-25 22:27:00,
2013-02-25 14:32:00,68.1,39.4,30.19,NNW,342,3.0,3.0,35,0.00,CLR,,0.00,WeatherDisplay:10.37,2013-02-25 22:32:00,
2013-02-25 14:37:00,68.4,40.4,30.19,NW,310,5.8,5.8,36,0.00,CLR,,0.00,WeatherDisplay:10.37,2013-02-25 22:37:00,
2013-02-25 14:42:00,69.3,41.2,30.19,NNE,33,7.0,7.0,36,0.00,CLR,,0.00,WeatherDisplay:10.37,2013-02-25 22:42:00,
2013-02-25 14:47:00,68.6,39.8,30.19,SSW,201,2.3,2.3,35,0.00,CLR,,0.00,WeatherDisplay:10.37,2013-02-25 22:47:00,
2013-02-25 14:52:00,68.9,40.1,30.19,NW,309,7.0,7.0,35,0.00,CLR,,0.00,WeatherDisplay:10.37,2013-02-25 22:52:00,
2013-02-25 14:57:00,68.4,38.2,30.18,North,4,6.9,6.9,33,0.00,CLR,,0.00,WeatherDisplay:10.37,2013-02-25 22:57:00,
2013-02-25 15:02:00,68.2,38.0,30.18,WNW,302,4.6,4.6,33,0.00,CLR,,0.00,WeatherDisplay:10.37,2013-02-25 23:02:00,
2013-02-25 15:07:00,68.5,39.0,30.18,North,359,3.5,3.5,34,0.00,CLR,,0.00,WeatherDisplay:10.37,2013-02-25 23:07:00,
2013-02-25 15:12:00,68.5,38.2,30.18,NW,309,3.0,3.0,33,0.00,CLR,,0.00,WeatherDisplay:10.37,2013-02-25 23:12:00,
2013-02-25 15:17:00,69.5,39.1,30.17,WNW,301,1.0,1.0,33,0.00,CLR,,0.00,WeatherDisplay:10.37,2013-02-25 23:17:00,
2013-02-25 15:22:00,70.0,43.9,30.17,SW,230,3.5,3.5,39,0.00,CLR,,0.00,WeatherDisplay:10.37,2013-02-25 23:22:00,
2013-02-25 15:27:00,70.1,43.3,30.17,SE,139,5.8,5.8,38,0.00,CLR,,0.00,WeatherDisplay:10.37,2013-02-25 23:27:00,
2013-02-25 15:32:00,69.6,43.5,30.17,SW,217,5.0,5.0,39,0.00,CLR,,0.00,WeatherDisplay:10.37,2013-02-25 23:32:00,
2013-02-25 15:37:00,69.4,44.0,30.17,SSE,161,10.0,10.0,40,0.00,CLR,,0.00,WeatherDisplay:10.37,2013-02-25 23:37:00,
2013-02-25 15:42:00,69.2,43.8,30.18,SSE,166,8.1,8.1,40,0.00,CLR,,0.00,WeatherDisplay:10.37,2013-02-25 23:42:00,
2013-02-25 15:47:00,68.4,45.0,30.18,SW,217,5.8,5.8,43,0.00,CLR,,0.00,WeatherDisplay:10.37,2013-02-25 23:47:00,
2013-02-25 15:52:00,68.1,45.9,30.18,SSW,211,6.9,6.9,45,0.00,CLR,,0.00,WeatherDisplay:10.37,2013-02-25 23:52:00,
2013-02-25 15:57:00,67.9,46.3,30.18,South,186,7.0,7.0,46,0.00,CLR,,0.00,WeatherDisplay:10.37,2013-02-25 23:57:00,
2013-02-25 16:02:00,66.9,45.4,30.18,SSE,151,11.5,11.5,46,0.00,CLR,,0.00,WeatherDisplay:10.37,2013-02-26 00:02:00,
2013-02-25 16:07:00,66.5,45.1,30.18,SW,233,9.2,9.2,46,0.00,CLR,,0.00,WeatherDisplay:10.37,2013-02-26 00:07:00,
2013-02-25 16:12:00,66.7,44.7,30.18,SW,226,8.1,8.1,45,0.00,CLR,,0.00,WeatherDisplay:10.37,2013-02-26 00:12:00,
2013-02-25 16:17:00,66.3,44.3,30.18,SSW,195,5.8,5.8,45,0.00,CLR,,0.00,WeatherDisplay:10.37,2013-02-26 00:17:00,
2013-02-25 16:22:00,66.3,43.7,30.18,SSE,161,6.9,6.9,44,0.00,CLR,,0.00,WeatherDisplay:10.37,2013-02-26 00:22:00,
2013-02-25 16:27:00,65.7,43.8,30.17,SSE,147,5.8,5.8,45,0.00,CLR,,0.00,WeatherDisplay:10.37,2013-02-26 00:27:00,
2013-02-25 16:33:00,65.4,44.1,30.17,SW,222,3.5,3.5,46,0.00,CLR,,0.00,WeatherDisplay:10.37,2013-02-26 00:33:00,
2013-02-25 16:38:00,65.3,44.0,30.17,SSW,210,3.5,3.5,46,0.00,CLR,,0.00,WeatherDisplay:10.37,2013-02-26 00:38:00,
2013-02-25 16:43:00,65.4,43.5,30.17,SW,215,5.0,5.0,45,0.00,CLR,,0.00,WeatherDisplay:10.37,2013-02-26 00:43:00,
2013-02-25 16:48:00,65.1,43.8,30.17,SSW,200,3.5,3.5,46,0.00,CLR,,0.00,WeatherDisplay:10.37,2013-02-26 00:48:00,
2013-02-25 16:53:00,65.0,44.3,30.17,SE,139,6.0,6.0,47,0.00,CLR,,0.00,WeatherDisplay:10.37,2013-02-26 00:53:00,
2013-02-25 16:58:00,64.7,44.5,30.17,WSW,246,4.6,4.6,48,0.00,CLR,,0.00,WeatherDisplay:10.37,2013-02-26 00:58:00,
2013-02-25 17:03:00,64.5,44.4,30.16,SSW,194,5.8,5.8,48,0.00,CLR,,0.00,WeatherDisplay:10.37,2013-02-26 01:03:00,
2013-02-25 17:08:00,64.0,44.4,30.16,SSW,211,6.9,6.9,49,0.00,CLR,,0.00,WeatherDisplay:10.37,2013-02-26 01:08:00,
2013-02-25 17:13:00,63.6,44.6,30.16,SSW,212,9.2,9.2,50,0.00,CLR,,0.00,WeatherDisplay:10.37,2013-02-26 01:13:00,
2013-02-25 17:19:00,63.1,44.7,30.16,SSE,159,6.0,6.0,51,0.00,CLR,,0.00,WeatherDisplay:10.37,2013-02-26 01:19:00,
2013-02-25 17:24:00,62.8,44.4,30.16,SSE,165,7.0,7.0,51,0.00,CLR,,0.00,WeatherDisplay:10.37,2013-02-26 01:24:00,
2013-02-25 17:29:00,62.3,44.4,30.16,SE,144,6.9,6.9,52,0.00,CLR,,0.00,WeatherDisplay:10.37,2013-02-26 01:29:00,
2013-02-25 17:34:00,61.7,43.9,30.16,SE,128,6.9,6.9,52,0.00,CLR,,0.00,WeatherDisplay:10.37,2013-02-26 01:34:00,
2013-02-25 17:39:00,61.1,43.8,30.17,SSE,167,5.0,5.0,53,0.00,CLR,,0.00,WeatherDisplay:10.37,2013-02-26 01:39:00,
2013-02-25 17:44:00,60.5,43.8,30.17,SE,131,3.5,3.5,54,0.00,CLR,,0.00,WeatherDisplay:10.37,2013-02-26 01:44:00,
2013-02-25 17:49:00,60.0,43.8,30.17,SSE,150,1.1,1.1,55,0.00,CLR,,0.00,WeatherDisplay:10.37,2013-02-26 01:49:00,
2013-02-25 17:54:00,59.7,44.0,30.17,SSE,152,2.3,2.3,56,0.00,CLR,,0.00,WeatherDisplay:10.37,2013-02-26 01:54:00,
2013-02-25 17:59:00,59.6,43.9,30.18,SSE,163,2.3,2.3,56,0.00,CLR,,0.00,WeatherDisplay:10.37,2013-02-26 01:59:00,
2013-02-25 18:04:00,59.3,44.1,30.18,South,175,2.3,2.3,57,0.00,CLR,,0.00,WeatherDisplay:10.37,2013-02-26 02:04:00,
2013-02-25 18:09:00,59.1,44.3,30.18,South,174,1.1,0.0,58,0.00,CLR,,0.00,WeatherDisplay:10.37,2013-02-26 02:09:00,
2013-02-25 18:14:00,58.9,44.1,30.18,SW,232,1.1,1.1,58,0.00,CLR,,0.00,WeatherDisplay:10.37,2013-02-26 02:14:00,
2013-02-25 18:19:00,58.8,44.5,30.18,SW,236,2.3,2.3,59,0.00,CLR,,0.00,WeatherDisplay:10.37,2013-02-26 02:19:00,
2013-02-25 18:24:00,58.8,44.5,30.18,WSW,246,5.8,5.8,59,0.00,CLR,,0.00,WeatherDisplay:10.37,2013-02-26 02:24:00,
2013-02-25 18:29:00,58.7,44.4,30.18,South,179,2.3,2.3,59,0.00,CLR,,0.00,WeatherDisplay:10.37,2013-02-26 02:29:00,
2013-02-25 18:34:00,58.2,43.9,30.19,SE,145,2.3,0.0,59,0.00,CLR,,0.00,WeatherDisplay:10.37,2013-02-26 02:34:00,
2013-02-25 18:39:00,57.6,43.8,30.19,ESE,115,1.1,1.3,60,0.00,CLR,,0.00,WeatherDisplay:10.37,2013-02-26 02:39:00,
2013-02-25 18:45:00,56.6,43.7,30.19,ESE,114,0.0,0.0,62,0.00,CLR,,0.00,WeatherDisplay:10.37,2013-02-26 02:45:00,
2013-02-25 18:50:00,55.7,43.7,30.19,ESE,114,1.1,1.1,64,0.00,CLR,,0.00,WeatherDisplay:10.37,2013-02-26 02:50:00,
2013-02-25 18:55:00,55.2,43.6,30.19,ESE,115,1.1,1.1,65,0.00,CLR,,0.00,WeatherDisplay:10.37,2013-02-26 02:55:00,
2013-02-25 19:00:00,55.3,43.7,30.19,SSE,152,1.1,1.1,65,0.00,CLR,,0.00,WeatherDisplay:10.37,2013-02-26 03:00:00,
2013-02-25 19:05:00,55.5,43.9,30.19,South,175,1.1,1.1,65,0.00,CLR,,0.00,WeatherDisplay:10.37,2013-02-26 03:05:00,
2013-02-25 19:10:00,55.3,43.7,30.19,SW,235,2.3,2.3,65,0.00,CLR,,0.00,WeatherDisplay:10.37,2013-02-26 03:10:00,
2013-02-25 19:15:00,55.0,43.8,30.19,SW,217,1.1,1.1,66,0.00,CLR,,0.00,WeatherDisplay:10.37,2013-02-26 03:15:00,
2013-02-25 19:20:00,54.7,44.0,30.20,SW,217,2.3,2.3,67,0.00,CLR,,0.00,WeatherDisplay:10.37,2013-02-26 03:20:00,
2013-02-25 19:25:00,54.5,43.8,30.19,SSW,207,2.3,2.3,67,0.00,CLR,,0.00,WeatherDisplay:10.37,2013-02-26 03:25:00,
2013-02-25 19:30:00,54.5,43.8,30.19,SW,229,2.3,2.3,67,0.00,CLR,,0.00,WeatherDisplay:10.37,2013-02-26 03:30:00,
2013-02-25 19:35:00,54.2,43.9,30.19,SSW,205,2.3,2.3,68,0.00,CLR,,0.00,WeatherDisplay:10.37,2013-02-26 03:35:00,
2013-02-25 19:40:00,53.9,43.6,30.19,SSW,203,1.1,1.1,68,0.00,CLR,,0.00,WeatherDisplay:10.37,2013-02-26 03:40:00,
2013-02-25 19:45:00,53.5,43.6,30.19,South,173,2.3,2.3,69,0.00,CLR,,0.00,WeatherDisplay:10.37,2013-02-26 03:45:00,
2013-02-25 19:50:00,53.0,43.5,30.19,SSW,207,1.1,1.1,70,0.00,CLR,,0.00,WeatherDisplay:10.37,2013-02-26 03:50:00,
2013-02-25 19:55:00,52.6,43.5,30.20,WSW,246,2.3,2.3,71,0.00,CLR,,0.00,WeatherDisplay:10.37,2013-02-26 03:55:00,
2013-02-25 20:00:00,52.3,43.5,30.20,WSW,245,1.1,1.1,72,0.00,CLR,,0.00,WeatherDisplay:10.37,2013-02-26 04:00:00,
2013-02-25 20:05:00,52.0,43.3,30.20,WSW,245,1.1,1.1,72,0.00,CLR,,0.00,WeatherDisplay:10.37,2013-02-26 04:05:00,
2013-02-25 20:10:00,51.6,42.9,30.20,WSW,245,0.0,0.0,72,0.00,CLR,,0.00,WeatherDisplay:10.37,2013-02-26 04:10:00,
2013-02-25 20:15:00,50.7,42.4,30.20,NNW,330,1.1,1.1,73,0.00,CLR,,0.00,WeatherDisplay:10.37,2013-02-26 04:15:00,
2013-02-25 20:20:00,50.4,42.8,30.20,NNW,329,2.3,2.3,75,0.00,CLR,,0.00,WeatherDisplay:10.37,2013-02-26 04:20:00,
2013-02-25 20:25:00,50.3,43.0,30.21,NNW,328,2.3,2.3,76,0.00,CLR,,0.00,WeatherDisplay:10.37,2013-02-26 04:25:00,
2013-02-25 20:30:00,50.5,42.9,30.21,NW,321,1.1,0.0,75,0.00,CLR,,0.00,WeatherDisplay:10.37,2013-02-26 04:30:00,
2013-02-25 20:35:00,50.2,42.9,30.21,NW,320,0.0,0.0,76,0.00,CLR,,0.00,WeatherDisplay:10.37,2013-02-26 04:35:00,
2013-02-25 20:40:00,49.9,42.6,30.21,NW,319,0.0,0.0,76,0.00,CLR,,0.00,WeatherDisplay:10.37,2013-02-26 04:40:00,
2013-02-25 20:45:00,49.5,42.6,30.21,NW,321,0.0,0.0,77,0.00,CLR,,0.00,WeatherDisplay:10.37,2013-02-26 04:45:00,
2013-02-25 20:50:00,48.7,41.8,30.21,NW,321,0.0,0.0,77,0.00,CLR,,0.00,WeatherDisplay:10.37,2013-02-26 04:50:00,
2013-02-25 20:55:00,48.0,41.5,30.21,NW,320,0.0,0.0,78,0.00,CLR,,0.00,WeatherDisplay:10.37,2013-02-26 04:55:00,
2013-02-25 21:00:00,47.7,41.8,30.21,NW,320,0.0,0.0,80,0.00,CLR,,0.00,WeatherDisplay:10.37,2013-02-26 05:00:00,
2013-02-25 21:01:00,47.6,41.7,30.21,NW,321,0.0,0.0,80,0.00,CLR,,0.00,WeatherDisplay:10.37,2013-02-26 05:01:00,
2013-02-25 21:02:00,47.5,41.6,30.21,NW,320,0.0,0.0,80,0.00,CLR,,0.00,WeatherDisplay:10.37,2013-02-26 05:02:00,
2013-02-25 21:07:00,47.2,41.7,30.22,NNE,27,1.1,1.1,81,0.00,CLR,,0.00,WeatherDisplay:10.37,2013-02-26 05:07:00,
2013-02-25 21:12:00,47.5,42.3,30.22,NE,51,1.1,1.1,82,0.00,CLR,,0.00,WeatherDisplay:10.37,2013-02-26 05:12:00,
2013-02-25 21:17:00,47.9,42.3,30.22,NE,51,1.1,1.1,81,0.00,CLR,,0.00,WeatherDisplay:10.37,2013-02-26 05:17:00,
2013-02-25 21:22:00,47.5,41.3,30.22,North,354,2.3,2.3,79,0.00,CLR,,0.00,WeatherDisplay:10.37,2013-02-26 05:22:00,
2013-02-25 21:27:00,46.5,41.3,30.22,NNW,335,2.3,2.3,82,0.00,CLR,,0.00,WeatherDisplay:10.37,2013-02-26 05:27:00,
2013-02-25 21:32:00,46.3,41.4,30.22,NW,304,0.0,0.0,83,0.00,CLR,,0.00,WeatherDisplay:10.37,2013-02-26 05:32:00,
2013-02-25 21:37:00,46.0,40.8,30.22,WNW,303,0.0,0.4,82,0.00,CLR,,0.00,WeatherDisplay:10.37,2013-02-26 05:37:00,
2013-02-25 21:42:00,45.9,41.3,30.21,NW,304,0.0,0.0,84,0.00,CLR,,0.00,WeatherDisplay:10.37,2013-02-26 05:42:00,
2013-02-25 21:47:00,45.8,41.5,30.22,NNW,345,0.0,0.7,85,0.00,CLR,,0.00,WeatherDisplay:10.37,2013-02-26 05:47:00,
2013-02-25 21:52:00,45.9,41.6,30.22,NNE,17,1.1,1.1,85,0.00,CLR,,0.00,WeatherDisplay:10.37,2013-02-26 05:52:00,
2013-02-25 21:57:00,45.9,41.6,30.21,NNE,15,1.1,1.1,85,0.00,CLR,,0.00,WeatherDisplay:10.37,2013-02-26 05:57:00,
2013-02-25 22:02:00,45.9,41.3,30.21,SW,233,1.1,1.1,84,0.00,CLR,,0.00,WeatherDisplay:10.37,2013-02-26 06:02:00,
2013-02-25 22:07:00,45.7,41.4,30.22,SW,235,1.1,1.1,85,0.00,CLR,,0.00,WeatherDisplay:10.37,2013-02-26 06:07:00,
2013-02-25 22:12:00,45.7,41.1,30.22,SW,235,0.0,0.0,84,0.00,CLR,,0.00,WeatherDisplay:10.37,2013-02-26 06:12:00,
2013-02-25 22:18:00,44.7,40.2,30.22,SW,235,2.3,2.3,84,0.00,CLR,,0.00,WeatherDisplay:10.37,2013-02-26 06:18:00,
2013-02-25 22:23:00,44.3,40.4,30.22,ENE,57,2.3,2.3,86,0.00,CLR,,0.00,WeatherDisplay:10.37,2013-02-26 06:23:00,
2013-02-25 22:28:00,44.3,40.1,30.22,NNW,334,3.5,3.5,85,0.00,CLR,,0.00,WeatherDisplay:10.37,2013-02-26 06:28:00,
2013-02-25 22:33:00,44.9,40.4,30.22,North,4,3.5,3.5,84,0.00,CLR,,0.00,WeatherDisplay:10.37,2013-02-26 06:33:00,
2013-02-25 22:38:00,46.1,41.5,30.22,NNW,333,3.5,3.5,84,0.00,CLR,,0.00,WeatherDisplay:10.37,2013-02-26 06:38:00,
2013-02-25 22:43:00,47.1,40.6,30.22,NW,316,0.0,0.0,78,0.00,CLR,,0.00,WeatherDisplay:10.37,2013-02-26 06:43:00,
2013-02-25 22:48:00,46.3,40.5,30.23,NNW,333,1.1,1.1,80,0.00,CLR,,0.00,WeatherDisplay:10.37,2013-02-26 06:48:00,
2013-02-25 22:53:00,45.7,40.2,30.23,WNW,297,1.1,1.1,81,0.00,CLR,,0.00,WeatherDisplay:10.37,2013-02-26 06:53:00,
2013-02-25 22:58:00,45.2,40.0,30.23,West,274,1.1,1.1,82,0.00,CLR,,0.00,WeatherDisplay:10.37,2013-02-26 06:58:00,
2013-02-25 23:03:00,45.1,39.9,30.23,WSW,253,2.3,2.3,82,0.00,CLR,,0.00,WeatherDisplay:10.37,2013-02-26 07:03:00,
2013-02-25 23:08:00,45.2,39.7,30.23,South,170,2.3,0.0,81,0.00,CLR,,0.00,WeatherDisplay:10.37,2013-02-26 07:08:00,
2013-02-25 23:13:00,44.5,39.0,30.23,East,79,0.0,0.0,81,0.00,CLR,,0.00,WeatherDisplay:10.37,2013-02-26 07:13:00,
2013-02-25 23:18:00,43.7,38.9,30.22,East,79,2.3,2.3,83,0.00,CLR,,0.00,WeatherDisplay:10.37,2013-02-26 07:18:00,
2013-02-25 23:23:00,43.5,39.0,30.23,ENE,69,2.3,2.3,84,0.00,CLR,,0.00,WeatherDisplay:10.37,2013-02-26 07:23:00,
2013-02-25 23:28:00,43.3,38.8,30.23,NE,47,2.3,2.3,84,0.00,CLR,,0.00,WeatherDisplay:10.37,2013-02-26 07:28:00,
2013-02-25 23:33:00,43.7,38.9,30.23,NNW,345,3.5,3.5,83,0.00,CLR,,0.00,WeatherDisplay:10.37,2013-02-26 07:33:00,
2013-02-25 23:38:00,43.9,38.4,30.23,NNW,343,2.3,2.3,81,0.00,CLR,,0.00,WeatherDisplay:10.37,2013-02-26 07:38:00,
2013-02-25 23:44:00,43.5,39.0,30.23,NNW,333,3.5,3.5,84,0.00,CLR,,0.00,WeatherDisplay:10.37,2013-02-26 07:44:00,
2013-02-25 23:49:00,46.5,40.0,30.22,NW,311,3.5,3.5,78,0.00,CLR,,0.00,WeatherDisplay:10.37,2013-02-26 07:49:00,
2013-02-25 23:54:00,48.1,41.2,30.22,NNW,329,2.3,2.3,77,0.00,CLR,,0.00,WeatherDisplay:10.37,2013-02-26 07:54:00,
2013-02-25 23:59:00,49.5,40.1,30.22,North,359,2.3,2.3,70,0.00,CLR,,0.00,WeatherDisplay:10.37,2013-02-26 07:59:00,